[[{"header":{"parameterUnit":"m.s-1","parameterCategory":1,"la1":30.2992,"la2":30.254,"lo1":-89.0895,"lo2":-89.0443,"dy":0.0025,"dx":0.0025,"nx":19,"ny":19,"refTime":"2026-04-17T03:00:00:Z","depth":0,"parameterNumber":2,"parameterNumberName":"U-component_of_WINDS"},"data":[0,0,0,1.185,1.1851,1.1849,1.1849,1.1853,1.1853,0,0,0,0,0,0,0,0,0,0,0,1.1856,1.1856,1.185,1.1851,1.1849,1.1849,1.1853,1.1853,0,0,0,0,0,0,0,0,0,0,0,1.1856,1.1856,1.1857,1.1851,1.1849,1.1849,1.1853,1.1852,0,0,0,0,0,0,0,0,0,0,1.1852,1.1863,1.1856,1.1857,1.1851,1.1849,1.1849,1.1852,1.1852,1.1857,0,1.1864,0,1.1859,1.1854,1.1854,0,0,0,1.1846,1.1863,1.1858,1.1857,1.1851,1.1849,1.1849,1.1852,1.1852,1.1858,1.1864,1.1864,1.1859,1.1854,1.1854,1.19,1.19,0,0,1.1846,1.1859,1.1858,1.1858,1.186,1.1849,1.1849,1.1852,1.186,1.1864,1.1864,1.1859,1.1854,1.1854,1.1899,1.19,0,0,0,1.1849,1.1859,1.1853,1.1858,1.1858,1.1849,1.1849,1.186,1.1857,1.1864,1.1859,1.1854,1.1855,1.1899,1.1899,1.193,0,0,0,1.1849,1.1861,1.1854,1.1861,1.1858,1.1859,1.1856,1.1857,1.1856,1.1859,1.1854,1.1855,1.1898,1.1899,1.1928,1.1942,0,0,0,1.1854,1.1861,1.1863,1.1862,1.1862,1.1859,1.1856,1.1856,1.1854,1.1854,1.1855,1.1898,1.1899,1.1927,1.194,1.1956,0,0,0,1.1863,1.1892,1.1864,1.1893,1.1862,1.1878,1.1856,1.1867,1.1872,1.1855,1.1898,1.1899,1.1926,1.1938,1.1954,1.1971,1.1979,0,0,1.1906,1.1897,1.1913,1.1888,1.1913,1.1878,1.1906,1.1899,1.1888,1.1896,1.1897,1.1929,1.1939,1.1956,1.2026,1.2033,0,0,0,1.1931,1.1942,1.1946,1.1951,1.1946,1.1941,1.1928,1.1925,1.1931,1.1895,1.194,1.1946,1.1955,1.1962,1.1968,1.1973,1.1904,1.1904,1.1903,1.2007,1.1991,1.2016,1.1999,1.2004,1.1989,1.199,1.1983,1.1966,1.1977,1.1979,1.2024,1.2033,1.2037,1.2043,1.1988,1.1988,1.1988,1.1988,1.2066,1.2079,1.2054,1.2069,1.2051,1.2063,1.2049,1.2036,1.2044,1.2022,1.2029,1.2004,1.2045,1.2049,1.199,1.199,1.199,1.199,1.1989,1.2113,1.2116,1.2112,1.2115,1.2119,1.2101,1.2108,1.2092,1.2077,1.2084,1.2083,1.2082,1.2078,1.2085,1.2085,1.2085,1.2085,1.2085,1.2086,1.2162,1.2156,1.2165,1.2161,1.216,1.2158,1.2142,1.214,1.2135,1.2122,1.2122,1.2102,1.2053,1.204,1.2088,1.2087,1.2087,1.2087,1.2087,1.2225,1.2208,1.2221,1.2221,1.2213,1.2216,1.2196,1.2194,1.219,1.2194,1.2173,1.214,1.213,1.2125,1.2113,1.2178,1.2178,1.2178,1.2178,1.2263,1.2256,1.2265,1.2264,1.2262,1.2244,1.2258,1.2245,1.2229,1.2225,1.2214,1.2198,1.2194,1.2186,1.218,1.2169,1.2246,1.2246,1.2246,1.2299,1.2291,1.2306,1.229,1.2282,1.2275,1.2286,1.2285,1.2264,1.2248,1.2221,1.2218,1.2193,1.2186,1.2169,1.216,1.2139,0,0]},{"header":{"parameterUnit":"m.s-1","parameterCategory":1,"la1":30.2992,"la2":30.254,"lo1":-89.0895,"lo2":-89.0443,"dy":0.0025,"dx":0.0025,"nx":19,"ny":19,"refTime":"2026-04-17T03:00:00:Z","depth":0,"parameterNumber":3,"parameterNumberName":"V-component_of_WINDS"},"data":[0,0,0,4.2137,4.2141,4.2336,4.2337,4.2584,4.2586,0,0,0,0,0,0,0,0,0,0,0,4.2081,4.2083,4.2136,4.2141,4.2336,4.2337,4.2583,4.2586,0,0,0,0,0,0,0,0,0,0,0,4.208,4.2082,4.2085,4.2142,4.2336,4.2337,4.2583,4.2436,0,0,0,0,0,0,0,0,0,0,4.2246,4.2198,4.2082,4.2085,4.2143,4.2336,4.2337,4.2429,4.2445,4.2496,0,4.2544,0,4.2569,4.2603,4.2604,0,0,0,4.2139,4.2185,4.2236,4.2085,4.2145,4.2335,4.2247,4.2438,4.2456,4.2517,4.2548,4.2557,4.2573,4.2604,4.2606,4.291,4.2911,0,0,4.2128,4.2117,4.2223,4.2248,4.2221,4.2241,4.2253,4.2449,4.248,4.2549,4.2562,4.2577,4.2606,4.2608,4.2908,4.291,0,0,0,4.2099,4.2109,4.2155,4.2238,4.2273,4.2247,4.2261,4.2472,4.2488,4.2565,4.258,4.2607,4.261,4.2907,4.2909,4.2973,0,0,0,4.2092,4.2092,4.2151,4.2146,4.2269,4.2376,4.2279,4.2474,4.2497,4.2579,4.2608,4.2613,4.2905,4.2908,4.2968,4.3005,0,0,0,4.2067,4.2089,4.2119,4.2145,4.2228,4.2373,4.24,4.2479,4.2506,4.2604,4.2614,4.2904,4.2908,4.2963,4.2997,4.308,0,0,0,4.2037,4.2173,4.2119,4.2276,4.2227,4.2412,4.2399,4.2537,4.2629,4.2609,4.2905,4.2909,4.2962,4.2992,4.3075,4.3147,4.3177,0,0,4.2202,4.2193,4.2286,4.2243,4.2435,4.2383,4.2583,4.2677,4.2696,4.2837,4.2844,4.297,4.2997,4.3079,4.3348,4.3372,0,0,0,4.2334,4.2401,4.2454,4.2542,4.2617,4.2684,4.2749,4.2783,4.2903,4.2767,4.3023,4.3039,4.3088,4.3123,4.3143,4.3184,4.2925,4.2925,4.2924,4.2551,4.2568,4.2722,4.2762,4.2846,4.2911,4.2979,4.3036,4.3029,4.3088,4.313,4.3292,4.3332,4.3347,4.339,4.3171,4.3171,4.3171,4.3171,4.2793,4.2889,4.2874,4.3019,4.3035,4.3155,4.322,4.321,4.3323,4.3262,4.3306,4.3238,4.3372,4.3411,4.3176,4.3175,4.3175,4.3174,4.3174,4.2936,4.2984,4.3024,4.315,4.3244,4.3278,4.3386,4.3397,4.3408,4.3451,4.3494,4.3493,4.3492,4.3471,4.3472,4.3472,4.3473,4.3473,4.3473,4.3068,4.3111,4.3202,4.3291,4.3347,4.3421,4.3485,4.3539,4.3601,4.36,4.36,4.3585,4.3383,4.3331,4.3482,4.3481,4.3479,4.3479,4.3478,4.3305,4.3252,4.3393,4.3449,4.3552,4.3643,4.3655,4.3764,4.381,4.3862,4.3837,4.3687,4.3677,4.3661,4.3618,4.3834,4.3834,4.3834,4.3834,4.3424,4.342,4.3565,4.3652,4.3739,4.3763,4.3917,4.3966,4.4008,4.4037,4.4007,4.3951,4.3935,4.3935,4.3913,4.3873,4.4149,4.415,4.415,4.3569,4.3574,4.3705,4.3747,4.3828,4.3896,4.4041,4.4139,4.4176,4.4163,4.4059,4.4046,4.3956,4.3926,4.3911,4.3877,4.3804,0,0]}]]